COSMOS 2302

Satellite information

Favourite Embed

Satellite Type and Status

PAYLOADIN ORBIT

Key statistics

Satellite COSMOS 2302 at a glance.

Uptime

11316

Days in orbit

Revolutions

≈ 12.6

Per day

Orbit

LEO

Low Earth Orbit

Inclination

82.6

Latest

Satellite identification and parameters

Extended collection of information and parameters for COSMOS 2302.

Object identification

Identified? True

Debris? False

Object name: COSMOS 2302

International designator: 1994-086D

Object number (NORAD): 23444

Object ID (CCSDS): 23444

Country: COMMONWEALTH OF INDEPENDENT STATES (CIS)

Current information (Y/N): Y

RCS size: MEDIUM

Orbital parameters

Period: 114.171 minutes

Inclination: 82.5658 deg

SMA: 7795.853 km

Apoapsis: 1422.892 km

Periapsis: 1412.545 km

RAAN: 82.4025 deg

Eccentricy: 0.00066362

Argument of periapsis: 224.0641 deg

Mean anomaly: 253.504 deg

Mean motion: 12.61267769 rev/day

Mean motion (dot): 0.00000022 rev/day2

B* drag term: 0.000065532354 1/REarth

Two-line elements (TLE)

Creation date: Dec. 19, 2025, 2:08 a.m.

Reference frame: TEME

Reference center: EARTH

Epoch: Dec. 18, 2025, 6:29 p.m. UTC

TLE line 0: 0 COSMOS 2302

TLE line 1: 1 23444U 94086D 25352.77075358 .00000022 00000-0 65532-4 0 9992

TLE line 2: 2 23444 82.5658 82.4025 0006636 224.0641 253.5040 12.61267769426079

Live tracking on map

Real-time ground track for satellite COSMOS 2302.

In-orbit conjunctions

A list of the most updated potential collisions computed for object COSMOS 2302.

Target Orbit TCA Probability of collision Miss distance Type
COSMOS 1998 LEO 2024-10-04 02:41:54 0.0003796894 192.0 (m) PAYLOAD

Associated space launch

Second generation store-dump military communications satellites

COSMOS 2302 was lifted into orbit during the mission ‘Tsiklon-3 | Strela-3 107 to 112’, on board a Tsiklon-3 space rocket.

The launch took place on Dec. 26, 1994, 10:26 p.m. from 32/2.

For more information about the launch, click the button.

Launch to space Tsiklon-3 | Strela-3 107 to 112
Tsiklon-3 | Strela-3 107 to 112

Agency: N/A

Status: Launch Successful

Launch date: Dec. 26, 1994, 10:26 p.m. UTC

Rocket: Tsiklon-3

Launch pad: 32/2

Location: Plesetsk Cosmodrome, Russian Federation

...

Latest news about this satellite

There are no fresh news available about this satellite. Check back as we update our databases every day.


Newsletter sign-up

Weekly statistics, charts and insights to help you stay on top of the space industry.